Redmond, OR

7:09 AM PDT on July 26, 2017 (GMT -0700)
Roberts Field Airport

Weather History for KRDM - March, 2014

Change the Weather History Date:

Sunday, March 16, 2014

  Actual Average Record
Temperature  
Mean Temperature 54 °F 40 °F  
Max Temperature 69 °F 54 °F 78 °F (1959)
Min Temperature 38 °F 26 °F 15 °F (1971)
Degree Days  
Heating Degree Days 11 25  
Month to date heating degree days 329 421  
Since 1 July heating degree days 5122 5094  
Cooling Degree Days 0 0  
Month to date cooling degree days 0 0  
Year to date cooling degree days 0 0  
Growing Degree Days 6 (Base 50)    
Moisture  
Dew Point 22 °F    
Average Humidity 42    
Maximum Humidity 76    
Minimum Humidity 8    
Precipitation  
Precipitation T in 0.03 in 0.39 in (1993)
Month to date precipitation 0.49 0.33  
Year to date precipitation 2.40 1.95  
Sea Level Pressure  
Sea Level Pressure 30.05 in    
Wind  
Wind Speed 13 mph (SW)    
Max Wind Speed 29 mph    
Max Gust Speed 37 mph    
Visibility 10 miles    
Events      
T = Trace of Precipitation, MM = Missing Value Source: NWS Daily Summary

Daily Weather History Graph

Daily Weather History Graph

Search for Another Location

Airport or City:

Trip Planner

Search our weather history database for the weather conditions in past years. The results will help you decide how hot, cold, wet, or windy it might be!

Date:

Astronomy

Mar. 16, 2014 Rise Set
Actual Time 7:14 AM PDT 7:12 PM PDT
Civil Twilight 6:46 AM PDT 7:41 PM PDT
Nautical Twilight 6:12 AM PDT 8:14 PM PDT
Astronomical Twilight 5:38 AM PDT 8:49 PM PDT
Moon 7:36 PM PDT (3/16) 7:00 AM PDT (3/16)
Length of Visible Light 12h 55m
Length of Day
11h 57m
Full, 100% of the Moon is Illuminated
Mar 16
Full
Mar 23
Last Quarter
Mar 30
New
Apr 7
First Quarter
Apr 15
Full

Hourly Weather History & Observations

Time (PDT) Temp. Windchill Dew Point Humidity Pressure Visibility Wind Dir Wind Speed Gust Speed Precip Events Conditions
12:56 AM 42.1 °F - 25.0 °F 51% 30.28 in 10.0 mi Calm Calm - N/A   Clear
1:56 AM 43.0 °F 38.8 °F 27.0 °F 53% 30.27 in 10.0 mi South 6.9 mph - N/A   Clear
2:56 AM 43.0 °F - 27.0 °F 53% 30.25 in 10.0 mi Calm Calm - N/A   Clear
3:56 AM 48.9 °F - 28.0 °F 44% 30.22 in 10.0 mi South 11.5 mph - N/A   Clear
4:56 AM 48.0 °F - 28.0 °F 46% 30.21 in 10.0 mi South 11.5 mph - N/A   Clear
5:56 AM 45.0 °F 40.6 °F 28.0 °F 52% 30.20 in 10.0 mi South 8.1 mph - N/A   Clear
6:56 AM 44.1 °F 38.6 °F 25.0 °F 47% 30.20 in 10.0 mi SSE 10.4 mph - N/A   Clear
7:56 AM 46.9 °F - 23.0 °F 39% 30.19 in 10.0 mi SSE 9.2 mph - N/A   Clear
8:56 AM 51.1 °F - 21.9 °F 32% 30.18 in 10.0 mi Variable 5.8 mph - N/A   Clear
9:56 AM 57.9 °F - 19.9 °F 23% 30.14 in 10.0 mi South 10.4 mph - N/A   Clear
10:56 AM 63.0 °F - 15.1 °F 16% 30.11 in 10.0 mi South 16.1 mph 28.8 mph N/A   Clear
11:56 AM 64.9 °F - 15.1 °F 15% 30.07 in 10.0 mi SSW 16.1 mph - N/A   Clear
12:56 PM 66.0 °F - 17.1 °F 15% 30.07 in 10.0 mi WNW 10.4 mph - N/A   Clear
1:30 PM 68.0 °F - 5.0 °F 8% 30.06 in 10.0 mi WSW 20.7 mph 31.1 mph N/A   Clear
1:56 PM 68.0 °F - 7.0 °F 9% 30.02 in 10.0 mi SW 15.0 mph 25.3 mph N/A   Clear
2:56 PM 69.1 °F - 9.0 °F 10% 29.98 in 10.0 mi WSW 15.0 mph 24.2 mph N/A   Clear
3:56 PM 69.1 °F - 6.1 °F 9% 29.94 in 10.0 mi SW 25.3 mph 35.7 mph N/A   Clear
4:56 PM 66.9 °F - 9.0 °F 10% 29.89 in 10.0 mi SW 27.6 mph 35.7 mph N/A   Clear
5:56 PM 64.0 °F - 10.0 °F 12% 29.90 in 10.0 mi West 17.3 mph 34.5 mph N/A   Clear
6:56 PM 52.0 °F - 35.1 °F 53% 29.91 in 10.0 mi WNW 19.6 mph 26.5 mph N/A   Clear
7:56 PM 48.9 °F - 35.1 °F 59% 29.90 in 10.0 mi NW 5.8 mph - N/A   Clear
8:56 PM 51.1 °F - 28.0 °F 41% 29.87 in 10.0 mi SW 11.5 mph 17.3 mph N/A   Clear
9:56 PM 50.0 °F - 28.0 °F 43% 29.84 in 10.0 mi WSW 21.9 mph 28.8 mph N/A   Scattered Clouds
10:20 PM 46.0 °F 38.5 °F 32.0 °F 58% 29.88 in 10.0 mi WNW 19.6 mph - N/A   Overcast
10:56 PM 43.0 °F 35.1 °F 35.1 °F 74% 29.87 in 10.0 mi WNW 17.3 mph 24.2 mph 0.00 in   Overcast
11:56 PM 42.1 °F 40.2 °F 34.0 °F 73% 29.86 in 10.0 mi WNW 3.5 mph - N/A   Mostly Cloudy